DW7093 Weather Reports


time (UTC)temp
C
wind
direction
speed
KPH
gust
KPH
rain 1hr
cm
rain 24hr
cm
rain mn
cm
humidity
%
barometer
mb
20260507113019 3 212 1.6 6.4 0.00 0.00 0.00 100 1015.5
20260507111517 3 252 0.0 6.4 0.00 0.00 0.00 100 1015.3
20260507110016 3 259 1.6 11.3 0.00 0.00 0.00 100 1015.1
20260507104514 3 327 0.0 6.4 0.00 0.00 0.00 100 1015.0
20260507103025 3 276 0.0 4.8 0.00 0.00 0.00 100 1014.8
20260507101511 3 261 0.0 6.4 0.00 0.00 0.00 100 1014.9
20260507100011 3 263 0.0 3.2 0.00 0.00 0.00 100 1015.0
20260507094511 3 248 0.0 11.3 0.00 0.00 0.00 100 1014.9
20260507093007 3 295 0.0 3.2 0.00 0.00 0.00 100 1014.9
20260507091506 3 267 0.0 1.6 0.00 0.00 0.00 100 1014.8
20260507090005 3 281 0.0 6.4 0.00 0.00 0.00 100 1014.9
20260507084503 3 273 0.0 0.0 0.00 0.00 0.00 100 1014.9
20260507083002 3 355 0.0 4.8 0.00 0.00 0.00 100 1014.7
20260507081610 4 288 1.6 6.4 0.00 0.00 0.00 100 1014.8
20260507080114 4 297 1.6 6.4 0.00 0.00 0.00 100 1014.8
20260507074555 4 298 0.0 6.4 0.00 0.00 0.00 100 1014.8
20260507073053 4 285 0.0 6.4 0.00 0.00 0.00 100 1014.8
20260507071608 4 263 0.0 3.2 0.00 0.00 0.00 100 1014.7
20260507070049 5 313 0.0 4.8 0.00 0.00 0.00 100 1014.9
20260507064546 5 301 1.6 4.8 0.00 0.00 0.00 100 1014.9
20260507063046 5 306 3.2 8.0 0.00 0.00 0.00 100 1014.9
20260507061543 6 309 1.6 6.4 0.00 0.00 0.00 100 1015.1
20260507060041 6 309 1.6 6.4 0.00 0.00 0.00 100 1015.1
20260507054537 6 306 0.0 6.4 0.00 0.00 0.00 100 1015.0
20260507053102 6 290 0.0 1.6 0.00 0.00 0.00 100 1015.0
20260507051541 6 331 0.0 3.2 0.00 0.00 0.00 100 1015.0
20260507050036 6 257 1.6 4.8 0.00 0.00 0.00 100 1015.0
20260507044532 6 317 0.0 3.2 0.00 0.00 0.00 100 1014.9
20260507043029 6 298 0.0 3.2 0.00 0.00 0.00 100 1014.8
20260507041526 6 270 0.0 3.2 0.00 0.00 0.00 100 1014.7
20260507040027 7 321 0.0 1.6 0.00 0.00 0.00 100 1014.7
20260507034532 7 325 0.0 6.4 0.00 0.00 0.00 100 1014.7
20260507033034 8 297 0.0 11.3 0.00 0.00 0.00 100 1014.6
20260507031520 7 324 1.6 11.3 0.00 0.00 0.00 100 1014.6
20260507030025 7 251 0.0 1.6 0.00 0.00 0.00 100 1014.5
20260507024518 8 281 0.0 6.4 0.00 0.00 0.00 100 1014.4
20260507023025 8 275 0.0 1.6 0.00 0.00 0.00 100 1014.5
20260507021517 9 275 0.0 3.2 0.00 0.00 0.00 100 1014.4
20260507020020 9 290 1.6 9.7 0.00 0.00 0.00 91 1014.4
20260507014516 10 274 0.0 0.0 0.00 0.00 0.00 100 1014.4
20260507013015 10 271 0.0 6.4 0.00 0.00 0.00 100 1014.2
20260507011515 10 277 0.0 4.8 0.00 0.00 0.00 100 1014.1
20260507010022 10 279 0.0 3.2 0.00 0.00 0.00 100 1014.0
20260507004514 10 279 1.6 6.4 0.00 0.00 0.00 84 1013.8
20260507003013 10 308 0.0 0.0 0.00 0.00 0.00 93 1013.6
20260507001512 11 308 0.0 0.0 0.00 0.00 0.00 71 1013.6
20260507000016 11 308 0.0 0.0 0.00 0.00 0.00 94 1013.6
20260506234511 11 308 0.0 3.2 0.00 0.08 0.00 36 1013.7
20260506233010 11 308 0.0 3.2 0.00 0.08 0.00 27 1013.6
20260506231510 11 307 0.0 4.8 0.00 0.08 0.00 26 1013.7
20260506230010 12 313 1.6 6.4 0.00 0.08 0.00 25 1013.7
20260506224509 12 313 1.6 6.4 0.00 0.08 0.00 23 1013.9
20260506223008 12 310 0.0 6.4 0.00 0.08 0.00 23 1013.7
20260506221509 12 306 0.0 4.8 0.00 0.08 0.00 27 1013.6
20260506220018 12 317 3.2 8.0 0.00 0.08 0.00 27 1013.7
20260506214507 12 296 0.0 8.0 0.00 0.18 0.00 28 1013.7
20260506213005 13 299 3.2 12.9 0.00 0.18 0.00 28 1013.6
20260506211507 13 298 1.6 8.0 0.00 0.18 0.00 28 1013.6
20260506210007 13 289 4.8 16.1 0.00 0.18 0.00 24 1013.7
20260506204502 14 328 3.2 14.5 0.00 0.20 0.00 31 1013.7
20260506203059 13 329 1.6 14.5 0.00 0.20 0.00 36 1013.6
20260506201559 12 321 1.6 8.0 0.00 0.20 0.00 33 1013.7
20260506200106 13 320 1.6 6.4 0.00 0.20 0.00 35 1013.8
20260506194605 12 315 1.6 16.1 0.00 0.20 0.00 30 1014.0
20260506193059 12 328 1.6 9.7 0.00 0.20 0.00 31 1014.0
20260506191607 13 300 3.2 11.3 0.00 0.20 0.00 35 1014.2
20260506190055 13 317 1.6 6.4 0.00 0.20 0.00 29 1014.1
20260506184552 12 302 3.2 9.7 0.00 0.20 0.00 35 1014.2
20260506183053 12 304 3.2 12.9 0.00 0.20 0.00 37 1014.3
20260506181556 12 309 1.6 8.0 0.00 0.20 0.00 40 1014.4
20260506180105 12 257 1.6 9.7 0.00 0.20 0.00 40 1014.3
20260506174545 12 304 1.6 6.4 0.00 0.20 0.00 39 1014.3
20260506173054 12 337 0.0 3.2 0.00 0.20 0.00 45 1014.1
20260506171544 11 316 1.6 8.0 0.00 0.20 0.00 43 1014.3
20260506170041 11 325 0.0 8.0 0.00 0.20 0.00 45 1014.3
20260506164538 11 317 1.6 6.4 0.00 0.20 0.00 45 1014.4
20260506163041 11 311 3.2 9.7 0.00 0.20 0.00 52 1014.3
20260506161537 11 327 0.0 1.6 0.00 0.20 0.00 59 1014.4
20260506160037 11 309 0.0 3.2 0.00 0.20 0.00 64 1014.5
20260506154535 10 331 0.0 8.0 0.00 0.20 0.00 59 1014.5
20260506153033 11 328 0.0 11.3 0.00 0.20 0.00 62 1014.4
20260506151531 11 306 3.2 8.0 0.00 0.20 0.00 66 1014.2
20260506150029 11 317 0.0 4.8 0.00 0.20 0.00 73 1014.3
20260506144527 10 288 3.2 14.5 0.00 0.20 0.00 68 1014.1
20260506143029 11 302 0.0 3.2 0.00 0.20 0.00 70 1013.9
20260506141531 10 27 0.0 4.8 0.00 0.20 0.00 82 1013.8
20260506140021 10 22 0.0 0.0 0.00 0.20 0.00 100 1013.7
20260506134515 8 322 0.0 3.2 0.00 0.20 0.00 100 1013.5
20260506133016 8 5 0.0 1.6 0.00 0.20 0.00 100 1013.6
20260506131509 8 17 0.0 1.6 0.00 0.20 0.00 100 1013.1
20260506130007 8 22 0.0 4.8 0.00 0.20 0.00 100 1013.0
20260506124502 7 15 0.0 0.0 0.00 0.20 0.00 100 1012.8
20260506123100 7 355 0.0 0.0 0.00 0.20 0.00 100 1012.9
20260506121558 6 334 0.0 0.0 0.00 0.20 0.00 100 1012.8
20260506120101 6 306 0.0 0.0 0.00 0.20 0.00 100 1012.5
20260506114555 5 306 0.0 0.0 0.00 0.20 0.00 100 1012.5